{"data":{"norad_id":47272,"intl_designator":"2020-100Q","name":"ONEWEB-0126","alt_names":[],"object_type":"PAYLOAD","status":"ACTIVE","operator":null,"country":"UK","launch_date":"2020-12-18","launch_site_code":"VOSTO","launch_vehicle":null,"mission":null,"orbit_class":"UNKNOWN","rcs_meters":null,"size_class":null,"mass_kg":null,"dimensions":null,"purposes":["comms"],"wikipedia_slug":null,"has_3d_model":false,"image_url":null,"decayed_at":null,"tle_current":{"epoch":"2026-09-20T04:28:43.225824Z","epoch_age_seconds":41572,"freshness":"FRESH","line1":"1 47272U 20100Q   26263.18661141  .00000469  00000+0  12682-2 0  9991","line2":"2 47272  87.8978 331.8087 0001751 100.3347 259.7979 13.12442232277168","mean_motion":13.12442232,"eccentricity":0.0001751,"inclination_deg":87.8978,"raan_deg":331.8087,"arg_perigee_deg":100.3347,"mean_anomaly_deg":259.7979,"bstar":0.0012682,"rev_number":27716,"period_min":109.71911486006,"perigee_km":1212.3969174708,"apogee_km":1215.0555879819,"semimajor_km":7591.8632527264,"source":"CELESTRAK","updated_at":"2026-09-20T09:00:44.578702Z"}}}